sat.trackr.live / text

‹ back to catalog

STARLINK-35946

NORAD 66522 · 2025-265G

PAYLOAD ACTIVE UNKNOWN

§ Identity

Operator
Country
US
Launch date
2025-11-19
Launch site
AFETR
Launch vehicle
Mass (kg)
RCS (m²)

Purposes: comms

External: N2YO · Heavens-Above · Gunter

§ Orbital elements

Epoch: 2026-09-20T08:47:31.316352Z

Period
94.27 min
Inclination
43.0018°
Eccentricity
0.0001364
Mean motion
15.27548690 rev/d
Perigee alt
482.2 km
Apogee alt
484.1 km
Semi-major
6,861.3 km
B*
3.6139e-4
RAAN
258.7694°
Arg perigee
267.1130°
Mean anomaly
92.9566°
Rev number
4,688

§ Raw data

STARLINK-359461 66522U 25265G   26263.36633468  .00009686  00000+0  36139-3 0  99922 66522  43.0018 258.7694 0001364 267.1130  92.9566 15.27548690 46884

JSON: /api/v1/satellites/66522 · /tle

For live sub-satellite position, see the globe view (requires WebGL).

§ Visibility from observer

Set your observer location to see the next 7 days of passes ≥ 10°. The values pass through the URL so the page stays shareable.

No JS? Fill the form by hand. The geolocation button needs JavaScript.